SLM431 SMJP-TNCC

Flight info

Callsign SLM431
Flight time N/A
Altitude 36000
Route ZY UG449 POS UP671 MEGIR UL219 BONAX BONAX1B
Aircraft B738/M-SDGIJ1LRWY/SB1

Departure

Time N/A
Airport Johan Adolf Pengel International Airport (SMJP)

Arrival

Time 2026-04-28 20:49
Airport Hato International Airport (TNCC)
Time Latitude Longitude Altitude Speed Heading
2026-04-28 20:02 11.19578 -64.98570 39891 ft 431 kts 286°
2026-04-28 20:03 11.21387 -65.04372 39889 ft 431 kts 287°
2026-04-28 20:03 11.23195 -65.10178 39887 ft 430 kts 287°
2026-04-28 20:04 11.25000 -65.15981 39895 ft 431 kts 287°
2026-04-28 20:04 11.26804 -65.21788 39897 ft 431 kts 286°
2026-04-28 20:05 11.28605 -65.27583 39896 ft 430 kts 286°
2026-04-28 20:05 11.30406 -65.33384 39895 ft 431 kts 287°
2026-04-28 20:06 11.32207 -65.39188 39895 ft 429 kts 287°
2026-04-28 20:06 11.34011 -65.45010 39894 ft 431 kts 287°
2026-04-28 20:07 11.35805 -65.50803 39896 ft 430 kts 286°
2026-04-28 20:07 11.37596 -65.56587 39897 ft 430 kts 286°
2026-04-28 20:08 11.39397 -65.62410 39894 ft 430 kts 286°
2026-04-28 20:08 11.41205 -65.68262 39891 ft 431 kts 286°
2026-04-28 20:09 11.42991 -65.74045 39892 ft 430 kts 286°
2026-04-28 20:09 11.44776 -65.79834 39892 ft 430 kts 286°
2026-04-28 20:10 11.46567 -65.85650 39895 ft 430 kts 286°
2026-04-28 20:10 11.48359 -65.91476 39896 ft 431 kts 286°
2026-04-28 20:11 11.50149 -65.97295 39894 ft 431 kts 286°
2026-04-28 20:11 11.51943 -66.03134 39895 ft 431 kts 286°
2026-04-28 20:12 11.53721 -66.08928 39893 ft 432 kts 286°
2026-04-28 20:12 11.55511 -66.14764 39894 ft 430 kts 286°
2026-04-28 20:13 11.57301 -66.20600 39895 ft 430 kts 286°
2026-04-28 20:13 11.59075 -66.26387 39893 ft 431 kts 286°
2026-04-28 20:14 11.60867 -66.32237 39889 ft 429 kts 286°
2026-04-28 20:14 11.62641 -66.38036 39887 ft 429 kts 286°
2026-04-28 20:15 11.64407 -66.43814 39888 ft 429 kts 286°
2026-04-28 20:15 11.66191 -66.49651 39891 ft 430 kts 286°
2026-04-28 20:16 11.67966 -66.55467 39888 ft 430 kts 286°
2026-04-28 20:16 11.69737 -66.61276 39886 ft 429 kts 286°
2026-04-28 20:17 11.71503 -66.67061 39889 ft 430 kts 286°
2026-04-28 20:17 11.73278 -66.72878 39885 ft 429 kts 286°
2026-04-28 20:18 11.75044 -66.78669 39884 ft 428 kts 286°
2026-04-28 20:18 11.76817 -66.84486 39883 ft 428 kts 286°
2026-04-28 20:19 11.78577 -66.90265 39880 ft 429 kts 286°
2026-04-28 20:19 11.80393 -66.96054 39880 ft 429 kts 287°
2026-04-28 20:20 11.82235 -67.01829 39881 ft 428 kts 287°
2026-04-28 20:20 11.84068 -67.07584 39880 ft 429 kts 286°
2026-04-28 20:21 11.85906 -67.13376 39881 ft 428 kts 287°
2026-04-28 20:21 11.87733 -67.19144 39874 ft 426 kts 286°
2026-04-28 20:21 11.88637 -67.21998 39693 ft 418 kts 287°
2026-04-28 20:22 11.89520 -67.24786 39171 ft 413 kts 286°
2026-04-28 20:22 11.90345 -67.27396 38611 ft 409 kts 287°
2026-04-28 20:22 11.91220 -67.30166 38094 ft 405 kts 286°
2026-04-28 20:22 11.92069 -67.32856 37529 ft 406 kts 287°
2026-04-28 20:23 11.92911 -67.35529 36946 ft 407 kts 287°
2026-04-28 20:23 11.93741 -67.38161 36375 ft 406 kts 286°
2026-04-28 20:23 11.94612 -67.40924 35784 ft 407 kts 286°
2026-04-28 20:23 11.95191 -67.42760 35337 ft 408 kts 286°
2026-04-28 20:24 11.96309 -67.46313 34601 ft 410 kts 286°
2026-04-28 20:24 11.97197 -67.49140 34154 ft 423 kts 286°
2026-04-28 20:24 11.98094 -67.51998 33651 ft 424 kts 286°
2026-04-28 20:24 11.99004 -67.54890 33179 ft 417 kts 286°
2026-04-28 20:25 11.99884 -67.57687 32696 ft 411 kts 286°
2026-04-28 20:25 12.00764 -67.60483 32252 ft 406 kts 286°
2026-04-28 20:25 12.01616 -67.63195 31780 ft 401 kts 286°
2026-04-28 20:25 12.02464 -67.65896 31299 ft 399 kts 285°
2026-04-28 20:26 12.03317 -67.68622 30838 ft 405 kts 285°
2026-04-28 20:26 12.04182 -67.71386 30357 ft 407 kts 285°
2026-04-28 20:26 12.05023 -67.74069 29864 ft 404 kts 285°
2026-04-28 20:26 12.05881 -67.76820 29369 ft 400 kts 284°
2026-04-28 20:27 12.06542 -67.79594 28885 ft 393 kts 276°
2026-04-28 20:27 12.06741 -67.82388 28400 ft 386 kts 265°
2026-04-28 20:27 12.06436 -67.85168 27938 ft 379 kts 257°
2026-04-28 20:27 12.05805 -67.87755 27460 ft 380 kts 251°
2026-04-28 20:28 12.04924 -67.90286 27001 ft 384 kts 247°
2026-04-28 20:28 12.03917 -67.92769 26518 ft 382 kts 245°
2026-04-28 20:28 12.02835 -67.95292 26042 ft 378 kts 245°
2026-04-28 20:28 12.01756 -67.97775 25557 ft 374 kts 245°
2026-04-28 20:29 12.00724 -68.00159 25087 ft 371 kts 245°
2026-04-28 20:29 11.99682 -68.02589 24614 ft 368 kts 245°
2026-04-28 20:29 11.98681 -68.04948 24180 ft 364 kts 245°
2026-04-28 20:29 11.97666 -68.07355 23700 ft 369 kts 245°
2026-04-28 20:30 11.96722 -68.09601 23253 ft 373 kts 245°
2026-04-28 20:30 11.95746 -68.11929 22783 ft 371 kts 245°
2026-04-28 20:30 11.94774 -68.14254 22318 ft 368 kts 245°
2026-04-28 20:30 11.93803 -68.16642 21882 ft 365 kts 249°
2026-04-28 20:31 11.93127 -68.18981 21423 ft 364 kts 258°
2026-04-28 20:31 11.92904 -68.21430 20985 ft 363 kts 270°
2026-04-28 20:31 11.93103 -68.23975 20530 ft 361 kts 276°
2026-04-28 20:31 11.93469 -68.26527 20056 ft 359 kts 278°
2026-04-28 20:32 11.93895 -68.29083 19574 ft 357 kts 278°
2026-04-28 20:32 11.94316 -68.31531 19127 ft 355 kts 279°
2026-04-28 20:32 11.94738 -68.34006 18658 ft 353 kts 278°
2026-04-28 20:32 11.95167 -68.36549 18192 ft 350 kts 278°
2026-04-28 20:33 11.95575 -68.39013 17728 ft 348 kts 278°
2026-04-28 20:33 11.95978 -68.41486 17268 ft 345 kts 278°
2026-04-28 20:33 11.96364 -68.43881 16826 ft 344 kts 278°
2026-04-28 20:33 11.96754 -68.46319 16348 ft 342 kts 278°
2026-04-28 20:34 11.97138 -68.48728 15890 ft 340 kts 278°
2026-04-28 20:34 11.97528 -68.51170 15438 ft 338 kts 278°
2026-04-28 20:34 11.97913 -68.53561 15010 ft 336 kts 278°
2026-04-28 20:34 11.98322 -68.55759 14578 ft 336 kts 281°
2026-04-28 20:35 11.98797 -68.57993 14155 ft 334 kts 281°
2026-04-28 20:35 11.99288 -68.60206 13730 ft 333 kts 282°
2026-04-28 20:35 11.99800 -68.62513 13295 ft 331 kts 281°
2026-04-28 20:35 12.00296 -68.64784 12837 ft 325 kts 281°
2026-04-28 20:36 12.00769 -68.66975 12453 ft 314 kts 281°
2026-04-28 20:36 12.01231 -68.69138 12053 ft 311 kts 281°
2026-04-28 20:36 12.01691 -68.71305 11632 ft 310 kts 281°
2026-04-28 20:36 12.02169 -68.73563 11239 ft 308 kts 281°
2026-04-28 20:37 12.02633 -68.75751 10819 ft 308 kts 281°
2026-04-28 20:37 12.03102 -68.77966 10395 ft 308 kts 281°
2026-04-28 20:37 12.03572 -68.80182 10060 ft 303 kts 281°
2026-04-28 20:37 12.04028 -68.82336 9863 ft 293 kts 281°
2026-04-28 20:38 12.04454 -68.84351 9537 ft 283 kts 281°
2026-04-28 20:38 12.04871 -68.86332 9218 ft 282 kts 281°
2026-04-28 20:38 12.05286 -68.88303 8827 ft 283 kts 281°
2026-04-28 20:38 12.05686 -68.90196 8497 ft 281 kts 281°
2026-04-28 20:39 12.06102 -68.92167 8184 ft 281 kts 281°
2026-04-28 20:39 12.06497 -68.94031 7819 ft 282 kts 281°
2026-04-28 20:39 12.06883 -68.95863 7503 ft 281 kts 281°
2026-04-28 20:39 12.07282 -68.97762 7146 ft 280 kts 282°
2026-04-28 20:40 12.07705 -68.99585 6811 ft 277 kts 285°
2026-04-28 20:40 12.08224 -69.01420 6517 ft 275 kts 287°
2026-04-28 20:40 12.08791 -69.03257 6175 ft 275 kts 288°
2026-04-28 20:40 12.09371 -69.05093 5855 ft 274 kts 288°
2026-04-28 20:41 12.09747 -69.06292 5628 ft 274 kts 288°
2026-04-28 20:41 12.10484 -69.08679 5197 ft 274 kts 288°
2026-04-28 20:41 12.11035 -69.10482 4874 ft 273 kts 288°
2026-04-28 20:41 12.11573 -69.12247 4553 ft 271 kts 288°
2026-04-28 20:42 12.12113 -69.14012 4222 ft 270 kts 289°
2026-04-28 20:42 12.12789 -69.15681 3879 ft 267 kts 302°
2026-04-28 20:42 12.13892 -69.16966 3675 ft 252 kts 332°
2026-04-28 20:42 12.15373 -69.17513 3516 ft 231 kts
2026-04-28 20:43 12.16922 -69.17620 3309 ft 224 kts
2026-04-28 20:43 12.17927 -69.17673 3138 ft 223 kts
2026-04-28 20:43 12.19483 -69.17781 2874 ft 221 kts
2026-04-28 20:43 12.21385 -69.17669 2611 ft 200 kts 26°
2026-04-28 20:44 12.22101 -69.17257 2491 ft 184 kts 50°
2026-04-28 20:44 12.22677 -69.16293 2448 ft 162 kts 77°
2026-04-28 20:44 12.22746 -69.14864 2445 ft 144 kts 93°
2026-04-28 20:44 12.22629 -69.13835 2454 ft 147 kts 97°
2026-04-28 20:45 12.22516 -69.13159 2453 ft 144 kts 98°
2026-04-28 20:45 12.22253 -69.11829 2459 ft 140 kts 99°
2026-04-28 20:45 12.22066 -69.10908 2459 ft 136 kts 99°
2026-04-28 20:45 12.21865 -69.09952 2456 ft 135 kts 99°
2026-04-28 20:46 12.21669 -69.09042 2485 ft 122 kts 99°
2026-04-28 20:46 12.21467 -69.08137 2234 ft 131 kts 101°
2026-04-28 20:46 12.21318 -69.07513 2160 ft 129 kts 99°
2026-04-28 20:46 12.21157 -69.06598 2069 ft 127 kts 98°
2026-04-28 20:47 12.20920 -69.05668 1834 ft 128 kts 101°
2026-04-28 20:47 12.20671 -69.04449 1501 ft 131 kts 96°
2026-04-28 20:47 12.20465 -69.03507 1290 ft 134 kts 99°
2026-04-28 20:47 12.20266 -69.02570 1100 ft 130 kts 99°
2026-04-28 20:48 12.20081 -69.01605 874 ft 133 kts 98°
2026-04-28 20:48 12.19887 -69.00649 706 ft 135 kts 99°
2026-04-28 20:48 12.19678 -68.99691 528 ft 133 kts 102°
2026-04-28 20:48 12.19476 -68.98731 375 ft 134 kts 101°
2026-04-28 20:49 12.19275 -68.97784 210 ft 134 kts 101°
2026-04-28 20:49 12.19137 -68.97140 105 ft 133 kts 101°
2026-04-28 20:49 12.18904 -68.96031 42 ft 82 kts 102°
2026-04-28 20:49 12.18821 -68.95632 42 ft 33 kts 101°
2026-04-28 20:50 12.18790 -68.95484 42 ft 26 kts 105°
2026-04-28 20:50 12.18702 -68.95402 42 ft 17 kts 195°
2026-04-28 20:50 12.18613 -68.95498 42 ft 14 kts 277°
2026-04-28 20:50 12.18613 -68.95564 42 ft 7 kts 223°
2026-04-28 20:51 12.18605 -68.95568 42 ft 0 kts 195°
2026-04-28 20:51 12.18576 -68.95571 42 ft 3 kts 186°
2026-04-28 20:51 12.18552 -68.95576 42 ft 3 kts 191°
2026-04-28 20:51 12.18539 -68.95579 42 ft 2 kts 191°
2026-04-28 20:52 12.18530 -68.95581 42 ft 0 kts 191°